Flag for U.S.A. Weather past 2 weeks in Fayetteville, North Carolina, U.S.A.

Now
86 °F

Sunny.


Feels Like: 85 °F
Forecast: 61 / 85 °F
Wind: 7 mph from East

Location: Fayetteville Regional Airport

Current Time: Aug 29, 2015 at 5:12:14 PM

Latest Report: Aug 29, 2015 at 3:53 PM


Visibility: 10 mi

Pressure: 30.13 "Hg

Humidity: 36%

Dew point: 56 °F

Location of FayettevilleLocation

Historic Weather in Fayetteville — Graph

°F

Fayetteville temperature yesterday

Maximum temperature yesterday: 87 °F (at 2:53 PM)
Minimum temperature yesterday: 64 °F (at 4:53 AM)
Average temperature yesterday: 74 °F

Past Weeks' High & Low Weather Summary

 TemperatureHumidityPressure
High91 °F (Aug 17, 12:53 PM)97% (Aug 18, 8:53 PM)30.21 "Hg (Aug 18, 8:53 PM)
Low61 °F (Aug 29, 6:53 AM)36% (Aug 28, 2:53 PM)29.82 "Hg (Aug 25, 4:53 PM)
Average78 °F73%30.01 "Hg
* Reported Aug 14 3:53 PM — Aug 29 3:53 PM, Fayetteville, Weather by CustomWeather, © 2015

Note: Actual official high and low records may vary slightly from our data, if they occured in-between our weather recording intervals... More about our weather records

Advertising

Fayetteville weather history for previous 24 hours

 ConditionsComfort  
Time TempWeatherWind HumidityBarometerVisibility
3:53 PM
Sat, Aug 29
86 °FSunny.7 mph36%30.13 "Hg10 mi
2:53 PM86 °FSunny.6 mph40%30.15 "Hg10 mi
1:53 PM84 °FSunny.7 mph43%30.17 "Hg10 mi
12:53 PM82 °FSunny.7 mph49%30.19 "Hg10 mi
11:53 AM80 °FSunny.5 mph54%30.20 "Hg10 mi
10:53 AM79 °FSunny.6 mph58%30.21 "Hg10 mi
9:53 AM76 °FSunny.8 mph67%30.19 "Hg10 mi
8:53 AM71 °FSunny.8 mph78%30.19 "Hg10 mi
7:53 AM67 °FSunny.7 mph87%30.19 "Hg9 mi
6:53 AM61 °FClear.7 mph97%30.17 "Hg7 mi
5:53 AM62 °FClear.6 mph93%30.15 "Hg9 mi
4:53 AM62 °FClear.6 mph93%30.14 "Hg8 mi
3:53 AM63 °FClear.7 mph93%30.15 "Hg9 mi
2:53 AM63 °FClear.5 mph93%30.15 "Hg9 mi
1:53 AM66 °FClear.3 mph90%30.15 "Hg10 mi
12:53 AM68 °FClear.No wind82%30.16 "Hg10 mi
11:53 PM
Fri, Aug 28
68 °FClear.No wind84%30.16 "Hg10 mi
10:53 PM69 °FClear.5 mph81%30.15 "Hg10 mi
9:53 PM71 °FClear.3 mph76%30.15 "Hg10 mi
8:53 PM73 °FClear.No wind69%30.12 "Hg10 mi
7:53 PM77 °FSunny.No wind60%30.10 "Hg10 mi
6:53 PM82 °FSunny.5 mph48%30.10 "Hg10 mi
5:53 PM85 °FSunny.8 mph40%30.09 "Hg10 mi
Weather by CustomWeather, © 2015

See weather overviewHow to use our weather pages